Date String (YYYY-MM-DD hh:mm:ss) UTC,Instrument flags,Ambient pressure (hPa),Sample flow (lpm),Bypass flow (lpm),Sample temperature (°C),Ambient temperature (°C),ASC tube jacket temperature (°C),LED temperature (°C),Box temperature (°C),Sample RH (%),Span deviation,Mass concentration (μg/m³),Mass concentration (μg/m³),Mass concentration (μg/m³)
DateTimeUTC,F1_M11,P_M11,Q1_M11,Q2_M11,T1_M11,T2_M11,T3_M11,T4_M11,T5_M11,U1_M11,ZSPAN_M11,X0_M11,X2_M11,X1_M11
2022-10-29 03:00:00,,0830.1,5.00,0.00,28.0,26.2,00.0,37.0,29.7,10.4,0000.0,0007.82,0003.75,0003.39
2022-10-29 03:01:00,,0830.1,5.00,0.00,28.0,26.2,00.0,37.0,29.7,10.3,0000.0,0007.71,0003.73,0003.39
2022-10-29 03:02:00,,0830.1,5.01,0.00,28.0,26.2,00.0,37.0,29.6,10.3,0000.0,0007.74,0003.72,0003.38
2022-10-29 03:03:00,,0830.1,5.00,0.00,28.0,26.1,00.0,37.0,29.6,10.3,0000.0,0007.73,0003.71,0003.37
2022-10-29 03:04:00,,0830.1,5.00,0.00,28.0,26.1,00.0,37.0,29.6,10.2,0000.0,0007.80,0003.69,0003.36
2022-10-29 03:05:00,,0830.1,5.00,0.00,28.0,26.1,00.0,37.0,29.6,10.5,0000.0,0007.80,0003.68,0003.36
2022-10-29 03:06:00,,0830.1,5.00,0.00,27.9,26.1,00.0,36.9,29.6,10.5,0000.0,0007.14,0003.70,0003.36
2022-10-29 03:07:00,,0830.1,5.00,0.00,27.9,26.1,00.0,36.9,29.6,10.5,0000.0,0007.19,0003.70,0003.37
2022-10-29 03:08:00,,0830.1,5.00,0.00,27.9,26.1,00.0,36.9,29.6,10.6,0000.0,0007.13,0003.70,0003.37
2022-10-29 03:09:00,,0830.1,5.00,0.00,27.9,26.0,00.0,36.9,29.5,10.7,0000.0,0007.43,0003.69,0003.39
2022-10-29 03:10:00,,0830.0,5.00,0.00,27.9,26.0,00.0,36.9,29.5,10.7,0000.0,0007.57,0003.69,0003.40
2022-10-29 03:11:00,,0830.0,4.99,0.00,27.9,26.0,00.0,36.9,29.5,10.8,0000.0,0007.76,0003.71,0003.41
2022-10-29 03:12:00,,0830.0,5.00,0.00,27.8,26.0,00.0,36.9,29.5,10.8,0000.0,0007.83,0003.73,0003.42
2022-10-29 03:13:00,,0830.0,5.00,0.00,27.8,26.0,00.0,36.9,29.5,10.8,0000.0,0007.80,0003.71,0003.42
2022-10-29 03:14:00,,0830.0,5.00,0.00,27.8,26.0,00.0,36.8,29.6,10.8,0000.0,0007.79,0003.71,0003.43
2022-10-29 03:15:00,,0830.0,5.00,0.00,27.8,26.0,00.0,36.8,29.5,10.8,0000.0,0007.96,0003.72,0003.44
2022-10-29 03:16:00,,0830.0,5.00,0.00,27.8,26.0,00.0,36.8,29.4,10.7,0000.0,0007.83,0003.71,0003.45
2022-10-29 03:17:00,,0830.0,5.00,0.00,27.8,26.0,00.0,36.8,29.4,10.4,0000.0,0008.00,0003.69,0003.45
2022-10-29 03:18:00,,0830.0,5.00,0.00,27.8,26.0,00.0,36.8,29.5,10.3,0000.0,0008.57,0003.69,0003.45
2022-10-29 03:19:00,,0830.0,5.00,0.00,27.8,25.9,00.0,36.8,29.5,10.4,0000.0,0009.08,0003.70,0003.45
2022-10-29 03:20:00,,0830.1,5.01,0.00,27.8,25.9,00.0,36.8,29.5,10.5,0000.0,0008.91,0003.69,0003.46
2022-10-29 03:21:00,,0830.1,5.00,0.00,27.8,25.9,00.0,36.8,29.5,10.7,0000.0,0008.54,0003.69,0003.45
2022-10-29 03:22:00,,0830.1,5.00,0.00,27.7,25.9,00.0,36.8,29.5,10.6,0000.0,0008.11,0003.70,0003.45
2022-10-29 03:23:00,,0830.1,5.00,0.00,27.7,25.9,00.0,36.7,29.4,10.6,0000.0,0008.05,0003.68,0003.45
2022-10-29 03:24:00,,0830.1,5.00,0.00,27.7,25.9,00.0,36.7,29.4,10.7,0000.0,0007.94,0003.66,0003.45
2022-10-29 03:25:00,,0830.1,5.00,0.00,27.7,25.9,00.0,36.7,29.4,10.7,0000.0,0007.95,0003.68,0003.45
2022-10-29 03:26:00,,0830.1,5.00,0.00,27.7,25.9,00.0,36.7,29.5,10.6,0000.0,0007.73,0003.69,0003.46
2022-10-29 03:27:00,,0830.0,5.01,0.00,27.7,25.9,00.0,36.7,29.5,10.7,0000.0,0007.70,0003.71,0003.46
2022-10-29 03:28:00,,0830.1,5.01,0.00,27.7,25.9,00.0,36.7,29.4,10.7,0000.0,0007.54,0003.73,0003.46
2022-10-29 03:29:00,,0830.1,4.99,0.00,27.7,25.9,00.0,36.7,29.5,10.6,0000.0,0006.77,0003.73,0003.46
2022-10-29 03:30:00,,0830.1,5.01,0.00,27.7,25.9,00.0,36.7,29.4,10.5,0000.0,0005.88,0003.72,0003.47
2022-10-29 03:31:00,,0830.0,5.01,0.00,27.7,25.9,00.0,36.7,29.4,10.4,0000.0,0005.73,0003.73,0003.47
2022-10-29 03:32:00,,0830.1,5.00,0.00,27.7,25.9,00.0,36.7,29.4,10.4,0000.0,0005.78,0003.77,0003.48
2022-10-29 03:33:00,,0830.0,5.00,0.00,27.7,25.9,00.0,36.7,29.4,10.4,0000.0,0005.77,0003.80,0003.49
2022-10-29 03:34:00,,0830.1,5.00,0.00,27.7,25.8,00.0,36.6,29.3,10.5,0000.0,0006.32,0003.86,0003.51
2022-10-29 03:35:00,,0830.1,5.00,0.00,27.6,25.8,00.0,36.6,29.3,10.5,0000.0,0006.79,0003.90,0003.52
2022-10-29 03:36:00,,0830.1,4.99,0.00,27.6,25.8,00.0,36.6,29.3,10.7,0000.0,0006.92,0003.92,0003.52
2022-10-29 03:37:00,,0830.1,5.00,0.00,27.6,25.8,00.0,36.6,29.4,10.6,0000.0,0007.45,0003.91,0003.52
2022-10-29 03:38:00,,0830.1,5.00,0.00,27.6,25.8,00.0,36.6,29.3,10.6,0000.0,0007.70,0003.93,0003.53
2022-10-29 03:39:00,,0830.1,5.00,0.00,27.6,25.8,00.0,36.6,29.3,10.6,0000.0,0007.64,0003.94,0003.54
2022-10-29 03:40:00,,0830.1,5.00,0.00,27.6,25.8,00.0,36.6,29.3,10.6,0000.0,0007.56,0003.95,0003.54
2022-10-29 03:41:00,,0830.1,5.00,0.00,27.6,25.8,00.0,36.6,29.3,10.6,0000.0,0007.59,0003.97,0003.54
2022-10-29 03:42:00,,0830.1,5.01,0.00,27.6,25.8,00.0,36.6,29.3,10.6,0000.0,0007.67,0004.01,0003.55
2022-10-29 03:43:00,,0830.1,5.00,0.00,27.6,25.8,00.0,36.6,29.3,10.6,0000.0,0007.61,0003.98,0003.55
2022-10-29 03:44:00,,0830.1,5.01,0.00,27.6,25.8,00.0,36.5,29.3,10.6,0000.0,0007.56,0003.96,0003.57
2022-10-29 03:45:00,,0830.1,5.00,0.00,27.6,25.8,00.0,36.5,29.3,10.7,0000.0,0007.30,0003.91,0003.56
2022-10-29 03:46:00,,0830.1,5.00,0.00,27.5,25.7,00.0,36.5,29.2,10.7,0000.0,0006.86,0003.87,0003.55
2022-10-29 03:47:00,,0830.1,4.99,0.00,27.5,25.7,00.0,36.5,29.2,10.7,0000.0,0006.99,0003.85,0003.55
2022-10-29 03:48:00,,0830.1,4.99,0.00,27.5,25.7,00.0,36.5,29.2,10.8,0000.0,0006.32,0003.84,0003.55
2022-10-29 03:49:00,,0830.1,5.00,0.00,27.5,25.7,00.0,36.5,29.2,10.8,0000.0,0005.75,0003.80,0003.53
2022-10-29 03:50:00,,0830.0,5.00,0.00,27.5,25.7,00.0,36.5,29.2,10.8,0000.0,0005.71,0003.79,0003.53
2022-10-29 03:51:00,,0830.0,5.00,0.00,27.5,25.7,00.0,36.5,29.2,10.7,0000.0,0005.67,0003.78,0003.53
2022-10-29 03:52:00,,0830.0,5.00,0.00,27.5,25.7,00.0,36.5,29.2,10.8,0000.0,0005.60,0003.74,0003.51
2022-10-29 03:53:00,,0830.0,5.00,0.00,27.5,25.7,00.0,36.4,29.2,10.7,0000.0,0005.62,0003.74,0003.50
2022-10-29 03:54:00,,0830.0,4.99,0.00,27.5,25.7,00.0,36.4,29.2,10.7,0000.0,0005.59,0003.72,0003.48
2022-10-29 03:55:00,,0830.0,4.99,0.00,27.5,25.7,00.0,36.4,29.1,10.7,0000.0,0005.67,0003.68,0003.45
2022-10-29 03:56:00,,0830.1,5.02,0.00,27.4,25.7,00.0,36.4,29.1,10.5,0000.0,0005.89,0003.68,0003.44
2022-10-29 03:57:00,,0830.1,5.00,0.00,27.4,25.7,00.0,36.4,29.1,10.5,0000.0,0005.71,0003.68,0003.44
2022-10-29 03:58:00,,0830.1,5.00,0.00,27.4,25.7,00.0,36.4,29.2,10.4,0000.0,0005.50,0003.65,0003.42
2022-10-29 03:59:00,,0830.1,5.00,0.00,27.4,25.7,00.0,36.4,29.1,10.4,0000.0,0005.57,0003.62,0003.40
